• Join FlightAware (Why Join?)
  • Login
  • US Flag 
07:16PM EST


 

Airport Tracker/Info


-or-


 

Live Flight TrackerFlight Track Log ✈ AAY875 ✈ 04-Aug-2014 ✈ KBGR - KPIE

Flight Track Log - Related Links

Times and Time Zones

All times are in EDT time to prevent confusion due to time zone crossing. See the AAY875 flight status page for this flight to view local times or setup timezone preferences in your user account.

Time Position Orientation Groundspeed Altitude Reporting Facility
EDT Latitude Longitude Course Direction KTS MPH feet Rate Location/Type
06:50PM 44.7322 -68.8556 224° Southwest 213 245 2,900  Level Boston Center
06:51PM 44.6833 -68.9331 228° Southwest 247 284 5,400 2,580 Climbing Boston Center
06:52PM 44.6281 -69.0114 225° Southwest 271 312 8,200 2,460 Climbing Boston Center
06:54PM 44.5728 -69.0936 227° Southwest 281 323 10,600 1,740 Climbing Boston Center
06:55PM 44.3501 -69.4669 224° Southwest  Level FlightAware Approximate
06:55PM 44.5100 -69.1856 226° Southwest 318 366 11,900  Level Boston Center
06:56PM 44.2721 -69.5710 224° Southwest  Level FlightAware Approximate
06:56PM 44.4258 -69.3064 226° Southwest 350 403 14,800  Level Boston Center
06:57PM 44.3550 -69.4103 226° Southwest 364 419 16,600 1,680 Climbing Boston Center
06:58PM 44.2811 -69.5156 226° Southwest 372 428 18,300 1,680 Climbing Boston Center
06:59PM 44.2064 -69.6208 225° Southwest 376 433 20,200 1,620 Climbing Boston Center
07:01PM 44.0525 -69.8383 225° Southwest 390 449 23,300 1,440 Climbing Boston Center
07:02PM 43.9733 -69.9497 225° Southwest 399 459 24,700 1,320 Climbing Boston Center
07:03PM 43.8947 -70.0622 226° Southwest 404 465 26,100 1,260 Climbing Boston Center
07:04PM 43.8131 -70.1747 225° Southwest 405 466 27,400 1,080 Climbing Boston Center
07:05PM 43.7325 -70.2897 226° Southwest 409 471 28,400 960 Climbing Boston Center
07:06PM 43.6492 -70.4075 226° Southwest 421 484 29,400 1,260 Climbing Boston Center
07:07PM 43.5489 -70.5444 225° Southwest 422 486 31,000 1,200 Climbing Boston Center
07:08PM 43.4678 -70.6561 225° Southwest 416 479 32,000 480 Climbing Boston Center
07:09PM 43.3867 -70.7683 225° Southwest 414 476 32,000  Level Boston Center
07:10PM 43.3000 -70.8872 225° Southwest 413 475 32,000  Level Boston Center
07:11PM 43.2200 -70.9981 225° Southwest 411 473 32,000  Level Boston Center
07:12PM 43.1406 -71.1067 225° Southwest 409 471 32,000  Level Boston Center
07:13PM 43.0608 -71.2133 224° Southwest 405 466 32,000  Level Boston Center
07:14PM 42.9822 -71.3183 224° Southwest 399 459 32,000  Level Boston Center
07:15PM 42.9033 -71.4247 225° Southwest 400 460 32,000  Level Boston Center
07:16PM 42.8250 -71.5311 225° Southwest 400 460 32,000  Level Boston Center
07:17PM 42.7358 -71.6478 224° Southwest 399 459 32,000  Level Boston Center
07:18PM 42.6572 -71.7539 225° Southwest 400 460 32,000  Level Boston Center
07:19PM 42.5775 -71.8578 224° Southwest 399 459 32,000  Level Boston Center
07:20PM 42.5000 -71.9625 225° Southwest 397 457 32,000  Level Boston Center
07:21PM 42.4200 -72.0656 224° Southwest 396 456 32,000  Level Boston Center
07:22PM 42.3414 -72.1700 224° Southwest 396 456 32,000  Level Boston Center
07:23PM 42.2472 -72.2919 224° Southwest 391 450 32,000  Level Boston Center
07:24PM 42.1697 -72.3939 224° Southwest 390 449 32,000  Level Boston Center
07:25PM 42.0906 -72.4956 224° Southwest 390 449 32,000  Level Boston Center
07:26PM 42.0106 -72.5981 224° Southwest 392 451 32,000  Level Boston Center
07:27PM 41.9311 -72.7000 224° Southwest 392 451 32,000  Level Boston Center
07:28PM 41.8553 -72.8047 226° Southwest 392 451 32,000  Level Boston Center
07:29PM 41.7792 -72.9094 226° Southwest 392 451 32,000  Level Boston Center
07:30PM 41.7019 -73.0133 225° Southwest 392 451 32,000  Level Boston Center
07:32PM 41.6244 -73.1186 225° Southwest 392 451 32,000  Level Boston Center
07:33PM 41.5322 -73.2431 225° Southwest 392 451 32,000  Level Boston Center
07:34PM 41.4656 -73.3347 226° Southwest 393 452 32,000  Level Boston Center
07:35PM 41.3881 -73.4361 224° Southwest 394 453 32,000  Level Boston Center
07:36PM 41.2961 -73.5600 225° Southwest 394 453 32,000  Level Boston Center
07:37PM 41.2264 -73.6719 230° Southwest 394 453 32,000  Level Boston Center
07:38PM 41.1586 -73.7858 232° Southwest 395 455 32,000  Level Boston Center
07:39PM 41.0903 -73.8997 231° Southwest 395 455 32,000  Level Boston Center
07:39PM 41.0494 -73.9736 234° Southwest 399 459 32,000  Level New York Center
07:40PM 40.9817 -74.0858 231° Southwest 399 459 32,000  Level New York Center
07:41PM 40.9119 -74.1978 231° Southwest 404 465 32,000  Level New York Center
07:42PM 40.8461 -74.3125 233° Southwest 404 465 32,000  Level New York Center
07:43PM 40.7758 -74.4267 231° Southwest 404 465 32,000  Level New York Center
07:44PM 40.7058 -74.5378 230° Southwest 404 465 32,000  Level New York Center
07:45PM 40.6394 -74.6517 232° Southwest 404 465 32,000  Level New York Center
07:46PM 40.5689 -74.7653 231° Southwest 404 465 32,000  Level New York Center
07:47PM 40.4903 -74.8725 226° Southwest 404 465 32,000 120 Level New York Center
07:48PM 40.4156 -74.9800 228° Southwest 404 465 32,300 360 Climbing New York Center
07:49PM 40.3431 -75.0844 228° Southwest 399 459 32,800 540 Climbing New York Center
07:50PM 40.2683 -75.1886 227° Southwest 399 459 33,400 540 Climbing New York Center
07:51PM 40.1936 -75.2925 227° Southwest 404 465 33,900 240 Climbing New York Center
07:52PM 40.1208 -75.3964 228° Southwest 399 459 34,000  Climbing New York Center
07:53PM 40.0458 -75.4972 226° Southwest 399 459 34,000  Level New York Center
07:54PM 39.9731 -75.6006 227° Southwest 399 459 34,000  Level New York Center
07:55PM 39.9000 -75.7011 227° Southwest 399 459 34,000  Level New York Center
07:56PM 39.8347 -75.8128 233° Southwest 399 459 34,000  Level New York Center
07:57PM 39.7656 -75.9211 230° Southwest 394 453 34,000  Level New York Center
07:58PM 39.7003 -76.0269 231° Southwest 388 447 34,000 -60 Level New York Center
07:59PM 39.6186 -76.1519 230° Southwest 395 455 33,900  Descending Washington Center
08:00PM 39.5492 -76.2589 230° Southwest 403 464 34,000  Climbing Washington Center
08:01PM 39.4778 -76.3658 229° Southwest 398 458 34,000  Level Washington Center
08:02PM 39.4103 -76.4725 231° Southwest 398 458 34,000  Level Washington Center
08:03PM 39.3386 -76.5792 229° Southwest 398 458 34,000  Level Washington Center
08:04PM 39.2711 -76.6881 231° Southwest 398 458 34,000  Level Washington Center
08:05PM 39.2056 -76.7917 231° Southwest 398 458 34,000  Level Washington Center
08:06PM 39.1356 -76.8975 230° Southwest 398 458 34,000  Level Washington Center
08:07PM 39.0656 -77.0058 230° Southwest 398 458 34,000  Level Washington Center
08:08PM 38.9808 -77.1111 224° Southwest 398 458 34,000  Level Washington Center
08:09PM 38.8986 -77.1972 219° Southwest 392 451 34,000  Level Washington Center
08:10PM 38.8161 -77.2861 220° Southwest 392 451 34,000  Level Washington Center
08:11PM 38.7356 -77.3747 221° Southwest 387 445 34,000  Level Washington Center
08:12PM 38.6528 -77.4631 220° Southwest 387 445 34,000  Level Washington Center
08:13PM 38.5700 -77.5514 220° Southwest 387 445 34,000  Level Washington Center
08:14PM 38.4936 -77.6394 222° Southwest 387 445 34,000  Level Washington Center
08:15PM 38.4128 -77.7275 220° Southwest 387 445 34,000  Level Washington Center
08:17PM 38.3300 -77.8150 220° Southwest 382 440 34,000  Level Washington Center
08:17PM 38.2492 -77.9025 220° Southwest 382 440 34,000  Level Washington Center
08:18PM 38.1661 -77.9897 220° Southwest 387 445 34,000  Level Washington Center
08:19PM 38.0850 -78.0769 220° Southwest 387 445 34,000  Level Washington Center
08:20PM 38.0125 -78.1536 220° Southwest 387 445 34,000  Level Washington Center
08:21PM 37.9292 -78.2375 218° Southwest 382 440 34,000  Level Washington Center
08:22PM 37.8419 -78.3214 217° Southwest 394 453 34,000  Level Washington Center
08:23PM 37.7544 -78.4047 217° Southwest 400 460 34,000  Level Washington Center
08:24PM 37.6586 -78.4906 215° Southwest 400 460 34,000  Level Washington Center
08:25PM 37.5711 -78.5736 217° Southwest 400 460 34,000  Level Washington Center
08:26PM 37.4939 -78.6517 219° Southwest 400 460 34,000  Level Washington Center
08:27PM 37.3958 -78.7367 215° Southwest 400 460 34,000  Level Washington Center
08:28PM 37.3081 -78.8192 217° Southwest 400 460 34,000  Level Washington Center
08:29PM 37.2183 -78.9017 216° Southwest 400 460 34,000  Level Washington Center
08:31PM 37.1303 -78.9836 217° Southwest 400 460 34,000  Level Washington Center
08:31PM 37.0425 -79.0656 217° Southwest 400 460 34,000  Level Washington Center
08:32PM 36.9544 -79.1475 217° Southwest 400 460 34,000  Level Washington Center
08:33PM 36.8667 -79.2292 217° Southwest 400 460 34,000  Level Washington Center
08:34PM 36.7764 -79.3106 216° Southwest 400 460 34,000  Level Washington Center
08:35PM 36.6883 -79.3917 216° Southwest 400 460 34,000  Level Washington Center
08:36PM 36.6003 -79.4728 216° Southwest 400 460 34,000  Level Washington Center
08:37PM 36.5119 -79.5536 216° Southwest 400 460 34,000  Level Washington Center
08:39PM 36.3506 -79.6953 215° Southwest 396 456 34,000  Level Atlanta Center
08:40PM 36.2639 -79.7769 217° Southwest 396 456 34,000  Level Atlanta Center
08:41PM 36.1725 -79.8564 215° Southwest 396 456 34,000  Level Atlanta Center
08:42PM 36.0836 -79.9381 217° Southwest 396 456 34,000  Level Atlanta Center
08:43PM 35.9856 -80.0022 208° Southwest 396 456 34,000  Level Atlanta Center
08:44PM 35.8831 -80.0533 202° Southwest 396 456 34,000  Level Atlanta Center
08:45PM 35.7803 -80.1044 202° Southwest 401 461 34,000  Level Atlanta Center
08:46PM 35.6778 -80.1581 203° Southwest 401 461 34,000  Level Atlanta Center
08:47PM 35.5753 -80.2139 204° Southwest 401 461 34,000  Level Atlanta Center
08:48PM 35.4725 -80.2619 201° Southwest 401 461 34,000  Level Atlanta Center
08:49PM 35.3697 -80.3153 203° Southwest 409 471 34,000  Level Atlanta Center
08:50PM 35.2689 -80.3656 202° Southwest 409 471 34,000  Level Atlanta Center
08:51PM 35.1642 -80.4158 201° Southwest 409 471 34,000  Level Atlanta Center
08:52PM 35.0550 -80.4714 203° Southwest 409 471 34,000  Level Atlanta Center
08:53PM 34.9522 -80.5239 203° Southwest 409 471 34,000  Level Atlanta Center
08:56PM 34.7319 -80.6342 202° Southwest 398 458 34,000  Level Jacksonville Center
08:57PM 34.6308 -80.6822 201° Southwest 393 452 34,000  Level Jacksonville Center
08:58PM 34.5336 -80.7300 202° Southwest 398 458 34,000  Level Jacksonville Center
08:59PM 34.4322 -80.7806 202° Southwest 398 458 34,000  Level Jacksonville Center
09:00PM 34.3328 -80.8206 198° South 393 452 34,000  Level Jacksonville Center
09:01PM 34.2272 -80.8808 205° Southwest 388 447 34,000  Level Jacksonville Center
09:02PM 34.1236 -80.9308 202° Southwest 388 447 34,000  Level Jacksonville Center
09:03PM 34.0200 -80.9783 201° Southwest 394 453 34,000  Level Jacksonville Center
09:04PM 33.9206 -81.0256 202° Southwest 394 453 34,000  Level Jacksonville Center
09:05PM 33.8253 -81.0675 200° South 394 453 34,000  Level Jacksonville Center
09:06PM 33.7156 -81.1272 204° Southwest 394 453 34,000  Level Jacksonville Center
09:07PM 33.6119 -81.1792 203° Southwest 394 453 34,000 -60 Level Jacksonville Center
09:08PM 33.5083 -81.2286 202° Southwest 399 459 33,900  Descending Jacksonville Center
09:09PM 33.4044 -81.2778 202° Southwest 399 459 34,000  Climbing Jacksonville Center
09:10PM 33.3008 -81.3294 203° Southwest 405 466 34,000  Level Jacksonville Center
09:11PM 33.1992 -81.3808 203° Southwest 405 466 34,000  Level Jacksonville Center
09:12PM 33.0933 -81.4322 202° Southwest 405 466 34,000  Level Jacksonville Center
09:13PM 32.9894 -81.4833 202° Southwest 411 473 34,000  Level Jacksonville Center
09:14PM 32.8858 -81.5344 203° Southwest 411 473 34,000  Level Jacksonville Center
09:15PM 32.7797 -81.5831 201° Southwest 411 473 34,000  Level Jacksonville Center
09:16PM 32.6800 -81.6339 203° Southwest 411 473 34,000  Level Jacksonville Center
09:17PM 32.5844 -81.6794 202° Southwest 411 473 34,000  Level Jacksonville Center
09:18PM 32.4681 -81.7253 198° South 411 473 34,000  Level Jacksonville Center
09:19PM 32.3639 -81.7464 190° South 416 479 34,000  Level Jacksonville Center
09:20PM 32.2408 -81.7750 191° South 416 479 34,000  Level Jacksonville Center
09:21PM 32.1283 -81.8008 191° South 416 479 34,000  Level Jacksonville Center
09:22PM 32.0264 -81.8242 191° South 416 479 34,000  Level Jacksonville Center
09:23PM 31.9014 -81.8525 191° South 416 479 34,000  Level Jacksonville Center
09:24PM 31.7992 -81.8733 190° South 411 473 34,000  Level Jacksonville Center
09:25PM 31.6742 -81.9039 192° South 416 479 34,000  Level Jacksonville Center
09:26PM 31.5636 -81.9294 191° South 411 473 34,000  Level Jacksonville Center
09:27PM 31.4636 -81.9525 191° South 417 480 34,000  Level Jacksonville Center
09:28PM 31.3469 -81.9756 190° South 422 486 34,000  Level Jacksonville Center
09:29PM 31.2342 -82.0033 192° South 422 486 34,000  Level Jacksonville Center
09:30PM 31.1175 -82.0286 191° South 422 486 34,000  Level Jacksonville Center
09:31PM 31.0050 -82.0539 191° South 422 486 34,000  Level Jacksonville Center
09:32PM 30.8861 -82.0792 190° South 427 491 34,000 -60 Level Jacksonville Center
09:33PM 30.7736 -82.1019 190° South 427 491 33,900  Descending Jacksonville Center
09:34PM 30.6608 -82.1294 192° South 427 491 34,000  Climbing Jacksonville Center
09:35PM 30.5336 -82.1497 188° South 427 491 34,000 -60 Level Jacksonville Center
09:36PM 30.4189 -82.1747 191° South 427 491 33,900  Descending Jacksonville Center
09:37PM 30.3003 -82.2022 191° South 434 499 34,000  Climbing Jacksonville Center
09:38PM 30.1856 -82.2269 191° South 428 493 34,000 -60 Level Jacksonville Center
09:39PM 30.0686 -82.2494 189° South 428 493 33,900 -480 Descending Jacksonville Center
09:40PM 29.9600 -82.2525 181° South 428 493 33,100 -900 Descending Jacksonville Center
09:41PM 29.8431 -82.2533 180° South 428 493 32,100 -1,740 Descending Jacksonville Center
09:42PM 29.7158 -82.2517 179° South 418 481 29,700 -2,400 Descending Jacksonville Center
09:43PM 29.6011 -82.2525 180° South 418 481 27,400 -2,100 Descending Jacksonville Center
09:44PM 29.4903 -82.2531 180° South 418 481 25,500 -1,860 Descending Jacksonville Center
09:45PM 29.3819 -82.2539 180° South 404 465 23,700 -1,800 Descending Jacksonville Center
09:46PM 29.2794 -82.2544 180° South 388 447 22,000 -1,800 Descending Jacksonville Center
09:47PM 29.1772 -82.2553 180° South 382 440 20,200 -1,800 Descending Jacksonville Center
09:48PM 29.0750 -82.2558 180° South 376 433 18,500 -1,680 Descending Jacksonville Center
09:49PM 28.9728 -82.2564 180° South 371 427 16,900 -1,680 Descending Jacksonville Center
09:50PM 28.7833 -82.2500 178° South 354 407 13,800 -1,380 Descending Tampa TRACON
09:51PM 28.7000 -82.2500 180° South 343 395 13,000 -1,320 Descending Tampa TRACON
09:52PM 28.6000 -82.2500 180° South 332 382 11,300 -1,080 Descending Tampa TRACON
09:53PM 28.5167 -82.2833 199° South 323 372 11,000 -180 Descending Tampa TRACON
09:54PM 28.4333 -82.3167 199° South 307 353 11,000  Level Tampa TRACON
09:55PM 28.3500 -82.3500 199° South 313 360 11,000  Level Tampa TRACON
09:56PM 28.2833 -82.3833 204° Southwest 312 359 11,000 -480 Level Tampa TRACON
09:57PM 28.2000 -82.4167 199° South 308 354 10,200 -1,560 Descending Tampa TRACON
09:58PM 28.1167 -82.4500 199° South 295 339 7,900 -1,560 Descending Tampa TRACON
09:59PM 28.0500 -82.4667 192° South 285 328 7,100 -420 Descending Tampa TRACON
10:00PM 27.9833 -82.5000 204° Southwest 234 269 7,100 -480 Level Tampa TRACON
10:01PM 27.9167 -82.5167 192° South 237 273 6,200 -1,440 Descending Tampa TRACON
10:02PM 27.8667 -82.5667 221° Southwest 243 280 4,300 -1,800 Descending Tampa TRACON
10:03PM 27.8333 -82.6333 241° Southwest 232 267 2,600 -1,260 Descending Tampa TRACON
10:04PM 27.8333 -82.6833 270° West 192 221 1,800 -960 Descending Tampa TRACON
10:05PM 27.8833 -82.6833 360° North 139 160 700 -1,140 Descending Tampa TRACON
10:08PM 27.9000 -82.6833 310° West  Level FlightAware Approximate